Location: Arboyeti
(42.1122°N, 44.6017°E)
Time: 16:38:18
(UTC+00:00)

USA 281 - Pass Details

Date: 19 April 2021
Orbit: 1078 x 1081 km, 106.0° (Epoch: 02 May)

Event Time Altitude Azimuth Distance (km) Brightness Sun altitude
Exits shadow 20:55:20 48° 40° (NE) 1,381 3.9 -36.4°
Drops below altitude 10° 21:00:58 10° 346° (NNW) 2,927 6.2 -36.4°
Sets 21:03:33 0° 342° (NNW) 3,887 7.0 -36.4°
